Milwaukee, WI

1:07 PM CST on February 06, 2016 (GMT -0600)
Gen Mitchell International

Weather History for KMKE - September, 2013

Change the Weather History Date:

Wednesday, September 25, 2013

  Actual Average Record
Temperature  
Mean Temperature 59 °F 59 °F  
Max Temperature 66 °F 68 °F 89 °F (1933)
Min Temperature 51 °F 51 °F 29 °F (1942)
Degree Days  
Heating Degree Days 6 7  
Month to date heating degree days 87 86  
Since 1 July heating degree days 109 112  
Cooling Degree Days 0 1  
Month to date cooling degree days 99 65  
Year to date cooling degree days 676 630  
Growing Degree Days 8 (Base 50)    
Moisture  
Dew Point 52 °F    
Average Humidity 76    
Maximum Humidity 89    
Minimum Humidity 63    
Precipitation  
Precipitation 0.00 in 0.11 in 2.31 in (2005)
Month to date precipitation 1.45 2.68  
Year to date precipitation 31.58 26.86  
Snow  
Snow 0.00 in 0.00 in T in (1942)
Month to date snowfall 0.0 0.0  
Since 1 July snowfall 0.0 0.0  
Since 1 September snowfall 0.0 0.0  
Snow Depth 0.00 in    
Sea Level Pressure  
Sea Level Pressure 29.99 in    
Wind  
Wind Speed 4 mph (ENE)    
Max Wind Speed 13 mph    
Max Gust Speed 17 mph    
Visibility 10 miles    
Events      
T = Trace of Precipitation, MM = Missing Value Source: NWS Daily Summary

Daily Weather History Graph

Daily Weather History Graph

Search for Another Location

Airport or City:

Trip Planner

Search our weather history database for the weather conditions in past years. The results will help you decide how hot, cold, wet, or windy it might be!

Date:

Astronomy

Sep. 25, 2013 Rise Set
Actual Time 6:42 AM CDT 6:43 PM CDT
Civil Twilight 6:14 AM CDT 7:11 PM CDT
Nautical Twilight 5:41 AM CDT 7:44 PM CDT
Astronomical Twilight 5:07 AM CDT 8:17 PM CDT
Moon 10:41 PM CDT (9/25) 12:55 PM CDT (9/25)
Length of Visible Light 12h 57m
Length of Day
12h 00m
Waning Gibbous, 64% of the Moon is Illuminated
Sep 25
Waning Gibbous
Sep 26
Last Quarter
Oct 4
New
Oct 11
First Quarter
Oct 18
Full

Hourly Weather History & Observations

Time (CDT) Temp. Dew Point Humidity Pressure Visibility Wind Dir Wind Speed Gust Speed Precip Events Conditions
12:52 AM 59.0 °F 54.0 °F 83% 29.97 in 10.0 mi ENE 6.9 mph - N/A   Mostly Cloudy
1:52 AM 57.9 °F 53.1 °F 84% 29.97 in 10.0 mi ENE 4.6 mph - N/A   Partly Cloudy
2:52 AM 55.9 °F 52.0 °F 87% 29.97 in 10.0 mi Calm Calm - N/A   Partly Cloudy
3:52 AM 54.0 °F 50.0 °F 86% 29.97 in 10.0 mi Calm Calm - N/A   Partly Cloudy
4:52 AM 53.1 °F 48.9 °F 86% 29.98 in 9.0 mi WNW 3.5 mph - N/A   Clear
5:52 AM 52.0 °F 48.9 °F 89% 30.00 in 8.0 mi NW 6.9 mph - N/A   Partly Cloudy
6:52 AM 51.1 °F 48.9 °F 92% 29.99 in 7.0 mi Calm Calm - N/A   Scattered Clouds
7:52 AM 54.0 °F 50.0 °F 86% 30.00 in 7.0 mi WNW 3.5 mph - N/A   Scattered Clouds
8:52 AM 63.0 °F 55.0 °F 75% 30.00 in 10.0 mi Variable 4.6 mph - N/A   Scattered Clouds
9:52 AM 64.0 °F 54.0 °F 70% 30.01 in 10.0 mi East 9.2 mph - N/A   Scattered Clouds
10:52 AM 64.0 °F 53.1 °F 67% 30.01 in 10.0 mi East 10.4 mph - N/A   Scattered Clouds
11:52 AM 64.0 °F 53.1 °F 67% 30.01 in 10.0 mi East 8.1 mph - N/A   Partly Cloudy
12:52 PM 64.0 °F 52.0 °F 65% 30.00 in 10.0 mi East 6.9 mph - N/A   Scattered Clouds
1:52 PM 66.0 °F 53.1 °F 63% 29.99 in 10.0 mi ESE 6.9 mph - N/A   Partly Cloudy
2:52 PM 64.9 °F 53.1 °F 65% 29.98 in 10.0 mi ENE 8.1 mph - N/A   Partly Cloudy
3:52 PM 64.9 °F 53.1 °F 65% 29.99 in 10.0 mi NNE 9.2 mph - N/A   Partly Cloudy
4:52 PM 64.0 °F 52.0 °F 65% 29.99 in 10.0 mi ENE 9.2 mph - N/A   Partly Cloudy
5:52 PM 62.1 °F 50.0 °F 65% 29.99 in 10.0 mi ENE 9.2 mph - N/A   Clear
6:52 PM 59.0 °F 48.9 °F 69% 29.99 in 10.0 mi ENE 4.6 mph - N/A   Clear
7:52 PM 57.9 °F 50.0 °F 75% 29.99 in 10.0 mi Calm Calm - N/A   Clear
8:52 PM 57.9 °F 51.1 °F 78% 29.98 in 10.0 mi Calm Calm - N/A   Clear
9:52 PM 57.0 °F 53.1 °F 87% 29.99 in 10.0 mi Calm Calm - N/A   Clear
10:52 PM 55.9 °F 52.0 °F 87% 29.99 in 10.0 mi Calm Calm - N/A   Clear
11:52 PM 57.9 °F 54.0 °F 87% 30.00 in 10.0 mi Calm Calm - N/A   Clear